• In Hungary
  • List of Countries
  • For 7 days
  • Water Temperature
  • Satellite Maps
  • Weather Map
  • News
  • Weather Widgets
  • user-avatar
    Login

    Hourly Weather Memphis

    Today, 24 June, Sunday

    Time Temperature Precipitation Wind Pressure Humidity
    00:00 +27°C° 0 mm 3 mps 751 mmHg 87%
    01:00 +27°C° 0.3 mm 3 mps 751 mmHg 88%
    02:00 +27°C° 0.3 mm 3 mps 751 mmHg 89%
    03:00 +26°C° 0.3 mm 3 mps 751 mmHg 90%
    04:00 +27°C° 0.5 mm 3 mps 752 mmHg 90%
    05:00 +27°C° 0.5 mm 3 mps 752 mmHg 91%
    06:00 +27°C° 0.5 mm 3 mps 753 mmHg 91%
    07:00 +28°C° 0.2 mm 3 mps 753 mmHg 86%
    08:00 +29°C° 0.2 mm 4 mps 753 mmHg 82%
    09:00 +32°C° 0.2 mm 4 mps 754 mmHg 77%
    10:00 +33°C° 0.1 mm 4 mps 754 mmHg 70%
    11:00 +34°C° 0.1 mm 3 mps 753 mmHg 64%
    12:00 +35°C° 0.1 mm 3 mps 753 mmHg 57%
    13:00 +36°C° 0 mm 3 mps 753 mmHg 56%
    14:00 +36°C° 0 mm 4 mps 753 mmHg 55%
    15:00 +36°C° 0 mm 4 mps 753 mmHg 54%
    16:00 +35°C° 0 mm 4 mps 752 mmHg 59%
    17:00 +34°C° 0 mm 3 mps 752 mmHg 64%
    18:00 +34°C° 0 mm 3 mps 752 mmHg 69%
    19:00 +31°C° 0 mm 3 mps 752 mmHg 73%
    20:00 +30°C° 0 mm 3 mps 753 mmHg 77%
    21:00 +29°C° 0 mm 3 mps 753 mmHg 82%
    22:00 +28°C° 0 mm 2 mps 753 mmHg 84%
    23:00 +28°C° 0 mm 2 mps 753 mmHg 85%

    Tomorrow, 25 June, Monday

    Time Temperature Precipitation Wind Pressure Humidity
    00:00 +27°C° 0 mm 2 mps 754 mmHg 87%
    01:00 +27°C° 0 mm 2 mps 753 mmHg 88%
    02:00 +27°C° 0 mm 3 mps 753 mmHg 88%
    03:00 +27°C° 0 mm 3 mps 753 mmHg 89%
    04:00 +27°C° 0.1 mm 3 mps 753 mmHg 89%
    05:00 +27°C° 0.1 mm 3 mps 754 mmHg 89%
    06:00 +27°C° 0.1 mm 3 mps 755 mmHg 88%
    07:00 +29°C° 0.2 mm 3 mps 755 mmHg 82%
    08:00 +30°C° 0.2 mm 3 mps 755 mmHg 76%
    09:00 +33°C° 0.2 mm 4 mps 755 mmHg 70%
    10:00 +34°C° 0.3 mm 4 mps 755 mmHg 66%
    11:00 +35°C° 0.3 mm 4 mps 755 mmHg 62%
    12:00 +36°C° 0.3 mm 4 mps 755 mmHg 57%
    13:00 +36°C° 0 mm 4 mps 755 mmHg 57%
    14:00 +36°C° 0 mm 4 mps 755 mmHg 56%
    15:00 +36°C° 0 mm 5 mps 755 mmHg 55%
    16:00 +36°C° 0 mm 4 mps 754 mmHg 59%
    17:00 +35°C° 0 mm 4 mps 754 mmHg 63%
    18:00 +34°C° 0 mm 3 mps 754 mmHg 67%
    19:00 +33°C° 0 mm 3 mps 754 mmHg 70%
    20:00 +30°C° 0 mm 3 mps 755 mmHg 72%
    21:00 +29°C° 0 mm 3 mps 755 mmHg 75%
    22:00 +29°C° 0 mm 3 mps 755 mmHg 75%
    23:00 +28°C° 0 mm 3 mps 755 mmHg 75%

    Day after tomorrow, 26 June, Tuesday

    Time Temperature Precipitation Wind Pressure Humidity
    00:00 +28°C° 0 mm 3 mps 755 mmHg 76%
    01:00 +28°C° 0 mm 2 mps 755 mmHg 77%
    02:00 +27°C° 0 mm 2 mps 755 mmHg 78%
    03:00 +27°C° 0 mm 2 mps 755 mmHg 79%
    04:00 +27°C° 0 mm 2 mps 755 mmHg 80%
    05:00 +27°C° 0 mm 3 mps 755 mmHg 81%
    06:00 +27°C° 0 mm 3 mps 756 mmHg 82%
    07:00 +29°C° 0 mm 3 mps 756 mmHg 76%
    08:00 +31°C° 0 mm 3 mps 756 mmHg 70%
    09:00 +34°C° 0 mm 3 mps 756 mmHg 65%
    10:00 +35°C° 0 mm 4 mps 756 mmHg 61%
    11:00 +36°C° 0 mm 4 mps 756 mmHg 56%
    12:00 +37°C° 0 mm 5 mps 756 mmHg 52%
    13:00 +37°C° 0 mm 5 mps 755 mmHg 52%
    14:00 +37°C° 0 mm 5 mps 755 mmHg 52%
    15:00 +37°C° 0 mm 5 mps 754 mmHg 51%
    16:00 +36°C° 0 mm 4 mps 754 mmHg 56%
    17:00 +36°C° 0 mm 4 mps 754 mmHg 60%
    18:00 +35°C° 0 mm 3 mps 753 mmHg 65%
    19:00 +34°C° 0 mm 4 mps 753 mmHg 67%
    20:00 +33°C° 0 mm 4 mps 753 mmHg 68%
    21:00 +30°C° 0 mm 4 mps 754 mmHg 70%
    22:00 +30°C° 0 mm 4 mps 754 mmHg 71%
    23:00 +30°C° 0 mm 4 mps 754 mmHg 72%

    27 June, Wednesday

    Time Temperature Precipitation Wind Pressure Humidity
    00:00 +29°C° 0 mm 4 mps 754 mmHg 72%
    01:00 +29°C° 0.2 mm 3 mps 754 mmHg 73%
    02:00 +29°C° 0.2 mm 3 mps 754 mmHg 74%
    03:00 +28°C° 0.2 mm 3 mps 754 mmHg 75%
    04:00 +28°C° 0 mm 3 mps 754 mmHg 77%
    05:00 +28°C° 0 mm 3 mps 754 mmHg 78%
    06:00 +28°C° 0 mm 3 mps 754 mmHg 80%
    07:00 +28°C° 0 mm 4 mps 754 mmHg 78%
    08:00 +29°C° 0 mm 4 mps 755 mmHg 76%
    09:00 +30°C° 0 mm 5 mps 755 mmHg 74%
    10:00 +30°C° 0.3 mm 5 mps 755 mmHg 73%
    11:00 +32°C° 0.3 mm 5 mps 755 mmHg 72%
    12:00 +32°C° 0.3 mm 5 mps 754 mmHg 71%
    13:00 +32°C° 0.1 mm 5 mps 754 mmHg 71%
    14:00 +32°C° 0.1 mm 5 mps 753 mmHg 71%
    15:00 +33°C° 0.1 mm 5 mps 753 mmHg 71%
    16:00 +33°C° 0 mm 4 mps 753 mmHg 72%
    17:00 +33°C° 0 mm 4 mps 752 mmHg 73%
    18:00 +33°C° 0 mm 3 mps 752 mmHg 74%
    19:00 +31°C° 0 mm 3 mps 753 mmHg 74%
    20:00 +32°C° 0 mm 4 mps 753 mmHg 75%
    21:00 +30°C° 0 mm 4 mps 753 mmHg 76%
    22:00 +29°C° 0.5 mm 4 mps 753 mmHg 78%
    23:00 +28°C° 0.5 mm 4 mps 753 mmHg 80%

    28 June, Thursday

    Time Temperature Precipitation Wind Pressure Humidity
    00:00 +28°C° 0.5 mm 4 mps 753 mmHg 83%
    01:00 +27°C° 0.3 mm 4 mps 753 mmHg 84%
    02:00 +27°C° 0.3 mm 4 mps 753 mmHg 85%
    03:00 +27°C° 0.3 mm 3 mps 753 mmHg 87%
    04:00 +27°C° 0.1 mm 3 mps 753 mmHg 87%
    05:00 +27°C° 0.1 mm 3 mps 753 mmHg 87%
    06:00 +27°C° 0.1 mm 3 mps 754 mmHg 87%
    07:00 +29°C° 0.1 mm 3 mps 754 mmHg 80%
    08:00 +31°C° 0.1 mm 3 mps 754 mmHg 73%
    09:00 +34°C° 0.1 mm 4 mps 755 mmHg 66%
    10:00 +35°C° 0 mm 4 mps 754 mmHg 61%
    11:00 +36°C° 0 mm 4 mps 754 mmHg 57%
    12:00 +37°C° 0 mm 4 mps 754 mmHg 52%
    13:00 +38°C° 0 mm 4 mps 753 mmHg 52%
    14:00 +38°C° 0 mm 4 mps 753 mmHg 51%
    15:00 +38°C° 0 mm 4 mps 753 mmHg 50%
    16:00 +38°C° 0 mm 3 mps 753 mmHg 54%
    17:00 +37°C° 0 mm 3 mps 753 mmHg 58%
    18:00 +36°C° 0 mm 2 mps 753 mmHg 61%
    19:00 +35°C° 0 mm 2 mps 753 mmHg 64%
    20:00 +32°C° 0 mm 2 mps 753 mmHg 67%
    21:00 +31°C° 0 mm 3 mps 754 mmHg 70%
    22:00 +31°C° 0 mm 3 mps 754 mmHg 72%
    23:00 +30°C° 0 mm 3 mps 754 mmHg 73%

    29 June, Friday

    Time Temperature Precipitation Wind Pressure Humidity
    00:00 +30°C° 0 mm 3 mps 753 mmHg 75%
    01:00 +29°C° 0 mm 3 mps 754 mmHg 76%
    02:00 +29°C° 0 mm 2 mps 754 mmHg 77%
    03:00 +28°C° 0 mm 2 mps 754 mmHg 78%
    04:00 +28°C° 0 mm 2 mps 754 mmHg 80%
    05:00 +28°C° 0 mm 2 mps 754 mmHg 81%
    06:00 +28°C° 0 mm 2 mps 755 mmHg 82%
    07:00 +30°C° 0 mm 2 mps 755 mmHg 76%
    08:00 +32°C° 0 mm 2 mps 755 mmHg 70%
    09:00 +34°C° 0 mm 3 mps 755 mmHg 64%
    10:00 +36°C° 0 mm 2 mps 755 mmHg 59%
    11:00 +37°C° 0 mm 2 mps 755 mmHg 54%
    12:00 +38°C° 0 mm 2 mps 754 mmHg 49%
    13:00 +38°C° 0 mm 2 mps 754 mmHg 48%
    14:00 +38°C° 0 mm 2 mps 754 mmHg 47%
    15:00 +39°C° 0 mm 2 mps 754 mmHg 46%
    16:00 +38°C° 0 mm 2 mps 753 mmHg 50%
    17:00 +37°C° 0 mm 2 mps 753 mmHg 55%
    18:00 +36°C° 0 mm 2 mps 753 mmHg 59%
    19:00 +35°C° 0 mm 2 mps 754 mmHg 62%
    20:00 +32°C° 0 mm 2 mps 754 mmHg 65%
    21:00 +31°C° 0 mm 2 mps 754 mmHg 68%
    22:00 +31°C° 0 mm 2 mps 754 mmHg 69%
    23:00 +30°C° 0 mm 2 mps 754 mmHg 70%
    Show more